Theta_e
332 332 332 332 332 331 330 330 330 328 327 328 328 330 330 329 329 329 329 329 328 327 327 327 328 328 327 327 326 325 325 325 324 325 328 329 329 328 325 326 328 329 328
332 332 331 331 330 329 330 330 329 329 329 328 329 329 331 329 329 330 329 327 328 326 326 327 327 326 327 327 328 327 326 325 325 324 325 326 326 326 324 323 323 323 322
332 331 330 330 330 329 330 329 328 328 329 328 328 328 330 329 330 330 330 329 327 326 326 326 325 327 328 327 327 326 325 325 325 325 323 323 322 322 321 320 320 320 321
331 331 331 330 329 329 329 329 327 326 326 328 328 330 330 330 331 331 331 330 328 324 326 326 326 328 327 326 325 324 324 324 323 322 322 321 320 320 320 319 318 319 319
331 330 330 330 330 329 329 327 327 326 327 328 330 330 330 328 329 331 330 329 325 325 327 328 327 327 328 326 325 324 324 323 324 323 322 320 319 319 319 319 318 317 317
333 331 330 331 330 329 328 327 327 326 327 330 330 329 328 325 330 331 328 327 327 328 327 328 328 328 327 325 324 324 323 323 323 322 321 320 319 318 318 318 317 316 316
332 332 331 330 329 328 328 327 327 327 327 330 329 329 324 325 330 331 329 327 328 327 327 327 326 326 326 324 323 323 324 323 323 322 321 321 320 319 318 318 317 317 316
332 332 331 329 328 328 327 327 326 328 329 329 328 327 324 328 331 331 329 328 327 327 327 327 326 325 325 323 323 323 323 323 323 322 322 321 320 319 319 318 318 316 316
334 333 329 328 326 327 327 325 327 327 328 329 328 327 325 328 331 330 329 329 326 326 326 325 325 324 323 323 322 322 323 323 322 322 322 321 320 320 320 319 317 315 315
333 332 329 327 326 327 327 326 328 328 328 329 328 327 325 329 331 330 329 328 326 325 324 324 323 323 323 323 322 322 320 321 322 322 321 321 321 320 320 320 318 316 316
332 332 330 328 327 328 328 328 329 329 329 329 328 326 325 329 331 330 330 329 326 325 324 323 324 323 323 323 322 322 322 322 322 322 321 321 321 320 320 320 318 315 316
331 331 330 328 329 329 328 329 330 330 330 329 327 325 326 329 330 331 330 329 326 325 324 324 324 324 323 323 322 323 323 322 322 321 320 320 321 320 320 320 318 316 315
330 330 329 329 329 328 329 330 330 330 330 328 326 326 327 329 331 331 329 328 326 326 325 325 324 324 324 323 323 323 322 322 321 320 319 320 320 320 319 319 317 316 315
329 329 329 329 329 329 330 330 330 330 329 328 327 326 327 329 330 330 329 327 327 326 325 325 324 324 324 323 323 323 323 322 322 321 321 320 319 317 319 322 323 323 321
329 329 329 330 329 330 330 331 330 330 329 329 328 327 327 328 329 329 329 328 327 326 325 325 324 324 324 322 322 323 323 322 322 321 321 320 319 316 316 319 320 322 324
329 329 330 330 330 330 330 330 330 330 330 329 328 328 327 329 329 329 329 327 327 325 324 323 323 323 322 322 322 322 323 322 322 321 321 319 317 317 317 319 320 321 323
329 329 329 330 330 329 328 329 328 328 330 330 330 329 327 328 329 329 328 327 326 326 323 323 323 323 323 322 321 322 323 323 322 321 321 320 320 321 322 323 322 322 322
330 330 330 330 329 328 327 327 327 325 324 324 330 330 328 327 328 328 328 326 326 326 325 324 323 323 323 322 322 323 324 323 324 323 322 322 322 323 324 324 325 324 324
329 330 330 330 330 329 326 325 325 324 324 328 330 330 329 327 328 328 327 326 324 324 325 325 325 325 325 325 324 324 324 324 323 323 323 323 323 324 324 324 324 324 324
329 330 330 331 330 330 328 327 325 323 322 325 328 329 329 328 326 328 327 326 324 324 324 325 326 326 326 326 324 324 324 324 324 324 324 323 324 326 326 326 325 325 325
329 329 330 330 330 330 330 328 327 324 322 321 323 325 329 330 328 327 328 328 327 326 323 323 324 324 324 324 325 327 325 323 323 323 324 324 325 325 326 324 324 325 325
327 329 328 328 329 329 329 329 328 326 324 322 322 322 327 329 328 328 326 328 328 328 328 326 324 323 325 327 327 325 324 325 325 325 325 324 324 323 322 323 323 324 324
325 326 327 327 327 328 328 328 328 328 328 328 327 324 322 325 328 328 328 326 326 327 327 328 328 328 328 326 324 326 327 327 327 327 326 325 324 324 323 322 322 322 321
326 326 324 325 326 325 325 326 326 327 327 328 327 327 326 324 323 325 326 327 326 325 325 326 326 326 327 327 328 327 325 325 327 328 328 326 324 324 324 324 323 322 322
318 320 324 327 323 323 324 324 323 323 323 325 326 327 327 326 325 324 324 325 325 325 324 324 324 323 322 322 323 324 325 326 326 326 326 326 325 322 321 321 321 322 321
315 317 319 321 325 327 324 323 322 321 321 321 321 323 325 325 325 325 325 324 325 325 325 324 324 323 322 322 321 320 320 319 319 320 321 320 319 319 319 319 319 319 319
Wind_Speed
27 25 23 21 18 15 14 13 12 13 12 9 6 4 3 4 7 8 6 6 8 6 8 8 10 11 12 13 16 16 16 9 7 5 7 13 20 23 24 33 34 37 41
26 25 22 19 16 14 13 13 14 13 10 9 5 4 5 5 5 6 6 9 7 10 9 9 9 8 8 10 10 16 19 13 16 11 13 15 20 27 33 34 36 38 39
24 23 19 18 17 15 14 14 12 12 9 6 5 5 6 4 5 8 6 8 11 8 10 10 9 8 8 9 13 18 21 20 21 20 13 20 23 32 32 30 37 38 43
21 19 20 20 18 15 14 14 13 9 7 3 4 6 3 1 4 7 4 8 13 10 7 7 9 10 11 14 18 22 24 25 24 23 22 22 24 28 37 35 30 35 35
21 21 21 20 15 14 14 11 12 10 4 5 8 6 2 2 6 7 3 8 11 8 5 7 9 9 9 15 23 26 29 24 24 23 22 22 24 24 27 30 32 30 29
19 17 20 17 15 15 13 11 10 6 6 5 10 5 2 3 7 4 6 10 8 5 5 9 12 12 14 18 22 27 27 32 27 21 23 23 22 24 29 29 33 27 9
17 18 18 18 17 16 13 11 9 7 8 11 10 5 2 4 6 5 7 8 9 10 13 16 17 17 17 20 26 26 26 27 28 31 31 27 28 31 34 30 28 21 16
18 20 20 21 17 15 15 12 9 9 11 13 10 5 2 4 5 5 6 9 10 12 12 13 14 15 17 27 30 26 25 23 25 24 28 31 37 35 30 38 28 23 27
17 22 22 20 17 16 15 13 10 9 10 11 9 5 3 4 6 8 8 11 12 11 12 13 13 17 22 27 30 30 30 24 24 28 34 40 39 36 36 33 26 27 16
21 24 22 21 18 16 16 14 11 10 11 12 9 5 3 5 7 8 8 13 15 15 15 14 18 23 26 28 31 31 28 31 32 31 30 34 30 29 28 27 31 24 18
22 24 22 20 20 16 14 13 10 9 10 12 9 6 5 5 8 9 10 12 16 17 18 19 22 23 25 28 31 32 31 31 33 32 31 31 28 27 24 23 27 31 26
24 25 24 21 19 17 15 12 10 10 13 15 12 8 6 5 8 10 10 9 15 18 20 21 21 20 20 24 27 30 29 30 32 30 28 27 28 24 20 19 21 22 18
26 26 25 22 18 17 15 13 11 11 14 15 13 9 8 6 9 11 10 11 15 18 21 21 20 18 19 21 25 30 27 25 28 28 25 28 27 27 20 17 16 15 19
28 27 24 22 18 16 13 13 13 13 14 13 12 10 11 10 11 14 14 14 15 19 22 21 19 18 17 20 23 23 22 25 28 30 29 28 27 29 21 17 14 14 15
28 28 24 22 20 16 14 13 12 11 13 15 14 14 16 14 14 15 17 17 20 22 24 23 21 19 18 20 22 20 21 22 24 28 28 27 27 27 23 18 16 14 13
23 24 26 24 21 18 16 13 11 9 10 10 9 11 13 12 14 13 16 16 22 25 23 20 16 17 19 20 19 20 23 23 23 25 27 28 27 25 24 22 20 19 18
26 25 26 26 23 21 18 16 13 10 10 11 10 9 10 13 14 15 15 17 22 23 19 19 18 20 19 22 21 18 25 27 25 24 25 26 25 24 23 23 22 21 24
30 32 31 29 27 24 22 19 15 12 8 7 13 11 11 12 15 17 16 20 25 23 22 25 25 25 24 21 21 27 25 24 27 26 25 23 22 23 22 23 25 28 29
27 29 27 28 30 28 24 20 17 14 10 12 14 14 14 13 18 17 19 23 26 25 23 25 25 25 24 26 27 27 28 26 28 29 28 26 26 26 28 29 30 32 30
28 30 31 28 27 28 26 22 18 16 14 15 17 17 20 19 22 23 23 24 25 26 25 24 25 24 25 25 25 27 29 29 30 31 32 32 32 31 30 30 31 30 31
28 29 33 30 28 28 29 28 26 23 21 19 20 19 24 27 28 30 31 30 29 29 28 28 27 26 26 26 28 29 30 32 33 34 34 35 35 34 36 33 32 34 34
26 29 31 27 27 26 28 28 28 27 27 26 26 23 23 27 27 29 32 34 35 34 33 32 31 31 31 30 29 29 31 34 35 35 35 36 37 37 36 35 35 35 35
16 23 26 23 24 27 28 29 28 27 28 29 29 28 27 29 32 32 35 35 36 37 37 36 36 36 36 36 37 37 37 38 38 37 37 38 38 38 38 37 37 36 34
21 3 15 22 21 23 26 28 30 30 29 29 30 31 32 34 36 39 40 40 39 40 40 40 41 41 40 39 41 42 43 43 42 41 39 38 36 36 38 38 38 39 39
24 22 21 19 9 18 21 26 28 29 29 30 29 31 34 35 36 38 41 42 42 42 43 44 44 45 44 44 45 46 47 48 49 48 47 46 45 43 42 41 39 39 38
22 23 23 23 23 22 10 2 6 11 17 23 27 30 32 35 38 39 39 40 42 44 45 45 46 46 47 47 47 48 50 50 50 49 47 45 45 45 44 43 41 40 41
Wind_Direction
135 135 138 140 141 151 164 170 176 165 164 175 185 193 233 266 259 260 241 230 227 251 228 233 219 224 219 214 219 218 206 158 130 116 109 134 139 145 144 145 152 151 153
141 142 143 147 150 157 163 166 165 168 172 177 194 234 254 269 272 271 246 206 208 216 216 206 192 193 203 206 206 194 193 174 139 129 111 124 139 147 138 141 144 145 149
150 155 156 160 166 168 167 166 171 175 175 197 243 280 223 265 278 277 264 219 192 192 202 202 199 202 199 192 181 168 163 143 132 124 117 121 119 129 121 121 122 127 139
162 165 171 177 175 171 168 170 178 177 182 229 225 165 182 306 321 336 297 188 195 200 202 210 202 191 191 162 158 153 146 130 134 127 118 117 118 121 125 119 109 121 128
174 178 184 175 172 169 168 170 178 179 155 130 151 159 160 8 5 8 88 149 162 171 197 193 182 180 180 171 159 149 143 137 127 126 128 122 126 131 126 125 117 119 126
182 183 175 169 168 168 172 164 172 174 150 171 165 163 141 33 20 70 106 126 133 135 134 154 151 158 156 163 159 154 148 144 138 138 133 135 134 128 129 128 124 123 109
181 183 169 164 165 170 179 178 178 186 164 164 170 171 117 50 37 84 112 132 133 122 130 141 146 152 155 156 154 147 147 146 146 146 142 144 133 139 133 132 135 134 134
173 171 173 167 168 171 174 183 189 156 156 165 170 174 119 85 76 104 112 128 127 137 141 149 145 146 157 152 144 132 136 136 141 141 142 142 143 146 144 146 145 135 143
163 174 176 176 170 174 176 177 178 166 157 168 174 174 132 104 115 124 122 120 125 130 131 140 144 145 145 139 129 123 132 129 144 144 149 153 153 151 153 148 134 132 142
176 178 180 181 177 183 186 187 183 179 174 172 172 172 145 122 136 142 143 123 124 126 129 132 133 136 139 139 131 123 119 125 135 136 146 152 155 156 159 165 160 144 143
179 179 181 182 186 189 176 177 175 172 167 171 168 161 152 132 146 151 162 140 132 133 135 138 136 141 145 146 141 140 137 143 148 148 151 155 159 161 166 174 174 170 161
176 179 181 186 190 190 177 169 158 156 168 164 155 144 145 147 152 161 167 166 146 143 145 147 146 150 147 149 151 148 145 150 151 147 151 160 166 173 178 184 188 191 173
178 183 187 189 195 187 176 166 154 152 160 165 155 155 156 150 148 156 161 160 154 152 151 147 149 149 148 148 146 152 152 149 158 153 158 169 177 174 172 178 190 196 207
181 186 188 186 189 185 184 178 172 170 170 173 169 167 166 154 151 158 158 156 152 149 152 150 149 152 154 150 151 159 162 166 167 169 172 176 178 181 181 179 182 199 216
181 184 188 186 180 177 178 184 193 199 197 188 192 183 172 169 170 167 168 164 161 154 152 155 159 161 156 159 162 166 172 176 177 179 177 177 182 189 200 204 213 216 222
169 176 185 185 183 185 178 182 203 215 218 216 208 200 191 184 176 175 174 167 162 158 157 157 160 162 165 169 172 180 182 181 183 181 182 183 188 198 210 218 229 233 236
174 178 184 187 186 187 186 185 194 215 226 220 214 205 202 183 179 176 173 168 167 167 162 173 174 174 176 183 186 189 192 195 191 188 191 197 203 211 217 225 230 236 244
189 188 186 190 193 195 197 194 200 203 206 188 199 199 195 193 186 182 178 172 173 183 185 180 185 189 191 190 194 198 197 200 206 207 208 213 216 220 225 232 235 236 240
192 189 187 192 198 201 202 202 204 212 213 184 183 191 190 188 191 191 192 188 189 195 199 200 200 200 201 204 204 202 204 205 209 213 217 223 228 230 236 242 246 248 245
200 202 197 198 199 203 206 208 210 213 212 202 199 198 186 184 189 198 202 203 208 210 210 214 213 215 216 215 213 212 215 216 217 220 224 228 232 236 240 243 245 243 246
206 204 202 198 201 202 206 210 215 216 217 217 218 212 203 197 200 203 208 212 218 223 222 222 222 224 225 227 227 227 227 227 227 228 231 235 241 242 248 250 245 246 245
215 211 203 200 201 200 206 211 212 216 221 224 230 227 221 211 214 213 216 221 224 228 231 231 230 230 230 230 230 231 233 236 239 241 245 248 251 253 255 251 249 247 248
217 216 214 209 208 208 208 213 213 218 223 231 235 234 226 222 222 227 229 231 232 234 235 237 239 242 241 240 238 238 239 241 244 248 251 254 257 258 258 253 250 245 242
53 92 221 221 215 219 217 215 221 225 224 229 232 236 238 234 230 232 237 239 239 241 241 242 244 246 247 246 245 245 245 246 248 250 253 257 260 260 258 256 252 250 250
42 38 48 46 242 229 228 234 235 235 236 234 233 236 243 243 241 237 238 240 243 244 246 247 249 250 250 249 250 250 250 250 250 253 255 257 260 261 261 260 258 258 256
44 44 33 35 36 48 53 2 272 267 261 256 250 244 244 246 249 249 245 240 242 244 248 249 252 251 252 253 252 251 252 253 253 253 253 254 255 254 254 254 255 256 257